Tracking 22440 objects as of 26-Feb-2021
HD Live streaming from Space Station
objects crossing your sky now

COSMOS 2133

Track COSMOS 2133 now!
COSMOS 2133 is classified as:


NORAD ID: 21111
Int'l Code: 1991-010A
Perigee: 35,768.6 km
Apogee: 35,817.8 km
Inclination: 14.5 °
Period: 1,436.1 minutes
Semi major axis: 42164 km
RCS: 12.1 m2 (large)
Launch date: February 14, 1991
Source: Commonwealth of Independent States (former USSR) (CIS)
Launch site: TYURATAM MISSILE AND SPACE COMPLEX (TTMTR)
aabbcc
Your satellite tracking list
Your tracking list is empty




NASA's NSSDC Master Catalog

Two Line Element Set (TLE):
1 21111U 91010A   21056.89464444 -.00000055  00000-0  00000-0 0  9995
2 21111  14.4755 357.4846 0005835  87.8478 102.3484  1.00273869110015
Source of the keplerian elements: AFSPC